When you browse on this site, cookies collect data to enhance your experience and personalize the content and advertising you see.
Visit our Privacy Policy to learn more. By continuing to use the site, you agree to this use of cookies and data.

Hourly Weather Sredniy

Today, 4 July, Saturday

Time Temperature Precipitation Wind Pressure Humidity
00:00 +20°C° 0 mm 2 mps 741 mmHg 91%
01:00 +20°C° 0 mm 2 mps 741 mmHg 91%
02:00 +20°C° 0 mm 1 mps 741 mmHg 88%
03:00 +19°C° 0 mm 2 mps 741 mmHg 88%
04:00 +19°C° 0 mm 2 mps 741 mmHg 88%
05:00 +19°C° 0 mm 2 mps 740 mmHg 88%
06:00 +21°C° 0 mm 2 mps 741 mmHg 84%
07:00 +24°C° 0 mm 2 mps 741 mmHg 80%
08:00 +26°C° 0 mm 2 mps 741 mmHg 74%
09:00 +27°C° 0.1 mm 2 mps 741 mmHg 72%
10:00 +27°C° 0.1 mm 2 mps 741 mmHg 69%
11:00 +28°C° 0.1 mm 2 mps 741 mmHg 67%
12:00 +28°C° 0.3 mm 2 mps 741 mmHg 68%
13:00 +28°C° 0.3 mm 3 mps 741 mmHg 69%
14:00 +28°C° 0.3 mm 3 mps 741 mmHg 69%
15:00 +27°C° 0.4 mm 2 mps 740 mmHg 73%
16:00 +27°C° 0.4 mm 2 mps 740 mmHg 76%
17:00 +26°C° 0.4 mm 1 mps 740 mmHg 80%
18:00 +25°C° 0.1 mm 1 mps 740 mmHg 82%
19:00 +24°C° 0.1 mm 1 mps 740 mmHg 84%
20:00 +23°C° 0.1 mm 2 mps 740 mmHg 87%
21:00 +21°C° 0.2 mm 2 mps 740 mmHg 89%
22:00 +21°C° 0.2 mm 2 mps 740 mmHg 91%
23:00 +20°C° 0.2 mm 2 mps 740 mmHg 93%

Tomorrow, 5 July, Sunday

Time Temperature Precipitation Wind Pressure Humidity
00:00 +20°C° 0.1 mm 2 mps 740 mmHg 93%
01:00 +20°C° 0.1 mm 2 mps 740 mmHg 94%
02:00 +20°C° 0.1 mm 2 mps 740 mmHg 95%
03:00 +20°C° 0 mm 2 mps 740 mmHg 95%
04:00 +21°C° 0 mm 1 mps 740 mmHg 94%
05:00 +21°C° 0 mm 1 mps 740 mmHg 94%
06:00 +22°C° 0.3 mm 1 mps 740 mmHg 91%
07:00 +23°C° 0.3 mm 1 mps 740 mmHg 89%
08:00 +24°C° 0.3 mm 1 mps 740 mmHg 86%
09:00 +25°C° 0.8 mm 1 mps 740 mmHg 82%
10:00 +25°C° 0.8 mm 2 mps 740 mmHg 78%
11:00 +26°C° 0.8 mm 2 mps 740 mmHg 74%
12:00 +27°C° 0 mm 2 mps 740 mmHg 73%
13:00 +27°C° 0 mm 2 mps 740 mmHg 71%
14:00 +27°C° 0 mm 2 mps 740 mmHg 69%
15:00 +27°C° 0 mm 2 mps 740 mmHg 72%
16:00 +27°C° 0 mm 2 mps 740 mmHg 74%
17:00 +26°C° 0 mm 2 mps 739 mmHg 77%
18:00 +25°C° 0.5 mm 1 mps 739 mmHg 80%
19:00 +23°C° 0.5 mm 1 mps 740 mmHg 83%
20:00 +22°C° 0.5 mm 1 mps 740 mmHg 86%
21:00 +21°C° 0.1 mm 1 mps 740 mmHg 87%
22:00 +21°C° 0.1 mm 1 mps 740 mmHg 88%
23:00 +20°C° 0.1 mm 1 mps 740 mmHg 89%

Day after tomorrow, 6 July, Monday

Time Temperature Precipitation Wind Pressure Humidity
00:00 +20°C° 0 mm 1 mps 740 mmHg 89%
01:00 +19°C° 0 mm 1 mps 740 mmHg 89%
02:00 +17°C° 0 mm 0 mps 740 mmHg 89%
03:00 +17°C° 0 mm 0 mps 740 mmHg 89%
04:00 +18°C° 0 mm 0 mps 740 mmHg 88%
05:00 +21°C° 0 mm 1 mps 740 mmHg 87%
06:00 +20°C° 0 mm 0 mps 740 mmHg 83%
07:00 +21°C° 0 mm 0 mps 740 mmHg 79%
08:00 +22°C° 0 mm 0 mps 740 mmHg 74%
09:00 +23°C° 0 mm 0 mps 740 mmHg 71%
10:00 +26°C° 0 mm 1 mps 740 mmHg 68%
11:00 +27°C° 0 mm 1 mps 740 mmHg 64%
12:00 +28°C° 0 mm 1 mps 740 mmHg 63%
13:00 +28°C° 0 mm 1 mps 739 mmHg 62%
14:00 +29°C° 0 mm 1 mps 739 mmHg 61%
15:00 +29°C° 0.1 mm 1 mps 739 mmHg 63%
16:00 +28°C° 0.1 mm 1 mps 739 mmHg 66%
17:00 +28°C° 0.1 mm 1 mps 739 mmHg 68%
18:00 +27°C° 0.1 mm 1 mps 738 mmHg 73%
19:00 +25°C° 0.1 mm 1 mps 738 mmHg 77%
20:00 +24°C° 0.1 mm 1 mps 738 mmHg 82%
21:00 +23°C° 0 mm 1 mps 738 mmHg 83%
22:00 +22°C° 0 mm 1 mps 738 mmHg 85%
23:00 +22°C° 0 mm 1 mps 738 mmHg 86%

7 July, Tuesday

Time Temperature Precipitation Wind Pressure Humidity
00:00 +22°C° 0 mm 1 mps 738 mmHg 87%
01:00 +19°C° 0 mm 0 mps 738 mmHg 87%
02:00 +19°C° 0 mm 0 mps 738 mmHg 88%
03:00 +21°C° 0 mm 1 mps 738 mmHg 88%
04:00 +22°C° 0 mm 1 mps 738 mmHg 88%
05:00 +22°C° 0 mm 1 mps 738 mmHg 88%
06:00 +24°C° 0 mm 1 mps 738 mmHg 84%
07:00 +25°C° 0 mm 2 mps 738 mmHg 80%
08:00 +27°C° 0 mm 2 mps 738 mmHg 75%
09:00 +28°C° 0 mm 2 mps 738 mmHg 70%
10:00 +29°C° 0 mm 2 mps 737 mmHg 65%
11:00 +30°C° 0 mm 2 mps 737 mmHg 60%
12:00 +30°C° 0 mm 2 mps 737 mmHg 63%
13:00 +30°C° 0 mm 3 mps 737 mmHg 67%
14:00 +30°C° 0 mm 3 mps 736 mmHg 70%
15:00 +29°C° 0 mm 3 mps 736 mmHg 73%
16:00 +29°C° 0 mm 3 mps 736 mmHg 77%
17:00 +29°C° 0 mm 2 mps 736 mmHg 80%
18:00 +28°C° 0 mm 3 mps 736 mmHg 80%
19:00 +27°C° 0 mm 3 mps 735 mmHg 81%
20:00 +26°C° 0 mm 4 mps 735 mmHg 81%
21:00 +25°C° 0 mm 4 mps 735 mmHg 78%
22:00 +25°C° 0 mm 5 mps 735 mmHg 74%
23:00 +25°C° 0 mm 5 mps 735 mmHg 71%

8 July, Wednesday

Time Temperature Precipitation Wind Pressure Humidity
00:00 +25°C° 0 mm 5 mps 735 mmHg 70%
01:00 +23°C° 0 mm 6 mps 734 mmHg 69%
02:00 +23°C° 0 mm 6 mps 734 mmHg 68%
03:00 +23°C° 0 mm 6 mps 734 mmHg 68%
04:00 +22°C° 0 mm 5 mps 734 mmHg 69%
05:00 +22°C° 0 mm 5 mps 734 mmHg 69%
06:00 +22°C° 0 mm 5 mps 734 mmHg 69%
07:00 +23°C° 0 mm 5 mps 734 mmHg 69%
08:00 +23°C° 0 mm 5 mps 733 mmHg 69%
09:00 +25°C° 0 mm 5 mps 734 mmHg 71%
10:00 +26°C° 0 mm 5 mps 734 mmHg 72%
11:00 +27°C° 0 mm 4 mps 734 mmHg 73%
12:00 +27°C° 0 mm 4 mps 734 mmHg 71%
13:00 +28°C° 0 mm 4 mps 733 mmHg 69%
14:00 +29°C° 0 mm 3 mps 733 mmHg 66%
15:00 +28°C° 0.9 mm 3 mps 733 mmHg 71%
16:00 +28°C° 0.9 mm 3 mps 733 mmHg 76%
17:00 +28°C° 0.9 mm 3 mps 732 mmHg 80%
18:00 +26°C° 1.4 mm 3 mps 732 mmHg 83%
19:00 +25°C° 1.4 mm 3 mps 732 mmHg 87%
20:00 +22°C° 1.4 mm 4 mps 732 mmHg 90%
21:00 +21°C° 4 mm 4 mps 732 mmHg 92%
22:00 +19°C° 4 mm 4 mps 732 mmHg 95%
23:00 +18°C° 4 mm 4 mps 733 mmHg 97%

9 July, Thursday

Time Temperature Precipitation Wind Pressure Humidity
00:00 +16°C° 1.3 mm 5 mps 733 mmHg 96%
01:00 +15°C° 1.3 mm 6 mps 733 mmHg 96%
02:00 +14°C° 1.3 mm 6 mps 733 mmHg 95%
03:00 +14°C° 0.2 mm 6 mps 734 mmHg 95%
04:00 +13°C° 0.2 mm 6 mps 734 mmHg 94%
05:00 +13°C° 0.2 mm 6 mps 735 mmHg 93%
06:00 +13°C° 0 mm 6 mps 735 mmHg 91%
07:00 +14°C° 0 mm 6 mps 735 mmHg 88%
08:00 +15°C° 0 mm 6 mps 736 mmHg 85%
09:00 +16°C° 0 mm 6 mps 736 mmHg 81%
10:00 +17°C° 0 mm 6 mps 737 mmHg 77%
11:00 +19°C° 0 mm 6 mps 738 mmHg 73%
12:00 +20°C° 0 mm 6 mps 738 mmHg 71%
13:00 +20°C° 0 mm 6 mps 738 mmHg 70%
14:00 +20°C° 0 mm 6 mps 738 mmHg 68%
15:00 +20°C° 0 mm 5 mps 738 mmHg 69%
16:00 +20°C° 0 mm 5 mps 739 mmHg 71%
17:00 +20°C° 0 mm 5 mps 739 mmHg 72%
18:00 +18°C° 0 mm 4 mps 739 mmHg 76%
19:00 +17°C° 0 mm 4 mps 739 mmHg 79%
20:00 +15°C° 0 mm 4 mps 740 mmHg 82%
21:00 +14°C° 0 mm 4 mps 740 mmHg 84%
22:00 +13°C° 0 mm 3 mps 740 mmHg 86%
23:00 +12°C° 0 mm 3 mps 741 mmHg 88%
Show more